Regional Weather Roundup
Issued by NWS

Home | Current Version | Previous Version | Graphics & Text | Print | Product List | Glossary On
Versions: 1 2 3 4 5 6 7 8 9 10 11 12 13 14 15 16 17 18 19 20 21 22 23 24 25 26 27 28 29 30 31 32 33 34 35 36 37 38 39 40 41 42 43 44 45 46 47 48 49 50
894
ASUS43 KLSX 241410
RWRMO

WEATHER SUMMARY FOR MISSOURI
NATIONAL WEATHER SERVICE SPRINGFIELD MO
900 AM CDT THU MAY 24 2018

NOTE: "FAIR" INDICATES FEW OR NO CLOUDS BELOW 12,000 FEET WITH NO
       SIGNIFICANT WEATHER AND/OR OBSTRUCTIONS TO VISIBILITY.
       CURRENT SKY AND/OR WEATHER CONDITIONS ARE NOT AVAILABLE FOR
       CHILLICOTHE AND FARMINGTON.

MOZ001>031-035>038-043-044-053-054-241500-
...NORTHERN AND WESTERN MISSOURI...

CITY           SKY/WX    TMP DP  RH WIND       PRES   REMARKS
KANSAS CTY INT PTSUNNY   73  67  81 S10       30.10F
KANSAS C DTWN  MOSUNNY   75  65  70 MISG      30.10S
LEE`S SUMMIT   MOSUNNY   73  66  78 S10       30.12S
ST JOSEPH      SUNNY     75  68  78 S8        30.09S
CHILLICOTHE      N/A     75  67  76 SE7       30.12S
KIRKSVILLE     SUNNY     77  66  68 S8        30.15F

$$
MOZ066>068-077>081-088>096-101>105-241500-
...SOUTHWEST MISSOURI...

CITY           SKY/WX    TMP DP  RH WIND       PRES   REMARKS
SPRINGFIELD    SUNNY     74  65  73 SE10      30.15R
JOPLIN         CLOUDY    72  66  81 SE5       30.12F
BRANSON        FOG       66  66 100 SE6       30.18R VSB 1/2

$$
MOZ032>034-039>042-045>050-055>058-069>072-241500-
...CENTRAL MISSOURI...

CITY           SKY/WX    TMP DP  RH WIND       PRES   REMARKS
COLUMBIA       MOSUNNY   76  68  76 E7        30.15S
JEFFERSON CITY SUNNY     75  68  78 E6        30.14S
ROLLA          MOSUNNY   76  68  76 SE7       30.17S
SEDALIA        CLOUDY    74  67  78 S7        30.15R
WHITEMAN AFB   PTSUNNY   72  67  84 S6        30.09S
WARRENSBURG    MOSUNNY   73  64  73 SE8       30.13R
OSAGE BEACH    PTSUNNY   72  67  84 S5        30.16S

$$
MOZ051-052-059>065-241500-
...EAST CENTRAL MISSOURI...

CITY           SKY/WX    TMP DP  RH WIND       PRES   REMARKS
ST LOUIS INTL  MOSUNNY   78  65  63 SE7       30.17S
SPIRIT OF STL  MOSUNNY   77  67  71 E3        30.15S
ST CHARLES     CLOUDY    76  65  68 SE8       30.15F

$$
MOZ072>076-082>087-097>100-106>115-241500-
...SOUTH CENTRAL AND SOUTHEAST MISSOURI...

CITY           SKY/WX    TMP DP  RH WIND       PRES   REMARKS
CAPE GIRARDEAU FAIR      77  66  68 NE3       30.15S
FARMINGTON     SUNNY     74  65  73 E3        30.19R
POPLAR BLUFF   FAIR      77  69  76 VRB3      30.14S
WEST PLAINS    CLOUDY    70  67  90 NE6       30.17F

$$




USA.gov is the U.S. government's official web portal to all federal, state and local government web resources and services.